Dallas Love, TX

9:46 AM CDT on April 28, 2017 (GMT -0500)
Dallas Love

Weather History for KDAL - February, 2014

Change the Weather History Date:

Wednesday, February 19, 2014

  Actual Average Record
Temperature  
Mean Temperature 66 °F -  
Max Temperature 70 °F 60 °F 77 °F (2016)
Min Temperature 61 °F 41 °F 24 °F (2006)
Growing Degree Days 16 (Base 50)    
Moisture  
Dew Point 60 °F    
Average Humidity 82    
Maximum Humidity 94    
Minimum Humidity 68    
Precipitation  
Precipitation 0.00 in - - ()
Sea Level Pressure  
Sea Level Pressure 29.81 in    
Wind  
Wind Speed 11 mph (South)    
Max Wind Speed 22 mph    
Max Gust Speed 31 mph    
Visibility 6 miles    
Events      
Averages and records for this station are not official NWS values.
T = Trace of Precipitation, MM = Missing Value Source: NWS Daily Summary

Daily Weather History Graph

Daily Weather History Graph

Search for Another Location

Airport or City:

Trip Planner

Search our weather history database for the weather conditions in past years. The results will help you decide how hot, cold, wet, or windy it might be!

Date:

Astronomy

Feb. 19, 2014 Rise Set
Actual Time 7:06 AM CST 6:16 PM CST
Civil Twilight 6:41 AM CST 6:41 PM CST
Nautical Twilight 6:12 AM CST 7:10 PM CST
Astronomical Twilight 5:44 AM CST 7:38 PM CST
Moon 10:52 PM CST (2/19) 9:29 AM CST (2/19)
Length of Visible Light 12h 00m
Length of Day
11h 09m
Waning Gibbous, 79% of the Moon is Illuminated
Feb 19
Waning Gibbous
Feb 22
Last Quarter
Mar 1
New
Mar 8
First Quarter
Mar 16
Full

Hourly Weather History & Observations

Time (CST) Temp. Dew Point Humidity Pressure Visibility Wind Dir Wind Speed Gust Speed Precip Events Conditions
12:53 AM 64.0 °F 57.9 °F 80% 29.88 in 10.0 mi South 4.6 mph - N/A   Clear
1:53 AM 64.0 °F 59.0 °F 84% 29.89 in 9.0 mi SSE 5.8 mph - N/A   Clear
2:53 AM 62.1 °F 57.9 °F 86% 29.88 in 7.0 mi SSE 8.1 mph - N/A   Clear
3:53 AM 61.0 °F 57.9 °F 90% 29.87 in 6.0 mi SSE 8.1 mph - N/A   Partly Cloudy
4:16 AM 62.6 °F 60.8 °F 94% 29.88 in 6.0 mi SSE 10.4 mph - N/A   Mostly Cloudy
4:53 AM 63.0 °F 60.1 °F 90% 29.86 in 4.0 mi South 11.5 mph - N/A   Overcast
5:53 AM 63.0 °F 61.0 °F 93% 29.87 in 4.0 mi South 10.4 mph - N/A   Overcast
6:53 AM 63.0 °F 61.0 °F 93% 29.87 in 3.0 mi South 11.5 mph - N/A   Overcast
7:27 AM 62.6 °F 60.8 °F 94% 29.89 in 2.0 mi South 10.4 mph - N/A   Overcast
7:53 AM 63.0 °F 61.0 °F 93% 29.88 in 2.5 mi South 9.2 mph - N/A   Overcast
8:01 AM 62.6 °F 60.8 °F 94% 29.90 in 3.0 mi South 12.7 mph - N/A   Overcast
8:53 AM 63.0 °F 60.1 °F 90% 29.91 in 3.0 mi South 11.5 mph - N/A   Overcast
9:53 AM 64.0 °F 60.1 °F 87% 29.90 in 4.0 mi South 16.1 mph - N/A   Overcast
10:53 AM 64.9 °F 60.1 °F 84% 29.89 in 6.0 mi South 15.0 mph - N/A   Haze
11:29 AM 66.2 °F 60.8 °F 83% 29.89 in 7.0 mi South 12.7 mph - N/A   Overcast
11:53 AM 66.0 °F 60.1 °F 81% 29.87 in 7.0 mi South 16.1 mph - N/A   Overcast
12:53 PM 66.0 °F 59.0 °F 78% 29.82 in 6.0 mi SSE 15.0 mph - N/A   Haze
1:53 PM 66.0 °F 59.0 °F 78% 29.80 in 5.0 mi South 11.5 mph - N/A   Haze
2:39 PM 66.2 °F 59.0 °F 78% 29.79 in 6.0 mi South 17.3 mph 21.9 mph N/A   Haze
2:53 PM 66.9 °F 59.0 °F 76% 29.77 in 6.0 mi South 11.5 mph - N/A   Haze
3:53 PM 69.1 °F 59.0 °F 70% 29.74 in 6.0 mi South 13.8 mph - N/A   Haze
4:53 PM 70.0 °F 59.0 °F 68% 29.72 in 8.0 mi South 15.0 mph 21.9 mph N/A   Overcast
5:27 PM 69.8 °F 60.8 °F 73% 29.72 in 7.0 mi South 16.1 mph 23.0 mph N/A   Overcast
5:53 PM 70.0 °F 60.1 °F 71% 29.70 in 7.0 mi South 18.4 mph 23.0 mph N/A   Overcast
6:53 PM 69.1 °F 60.1 °F 73% 29.69 in 10.0 mi South 10.4 mph - N/A   Overcast
7:53 PM 68.0 °F 60.1 °F 76% 29.68 in 10.0 mi South 9.2 mph - N/A   Overcast
8:53 PM 69.1 °F 59.0 °F 70% 29.68 in 10.0 mi SSE 15.0 mph - N/A   Overcast
9:53 PM 68.0 °F 59.0 °F 73% 29.68 in 10.0 mi South 16.1 mph - N/A   Overcast
10:53 PM 68.0 °F 60.1 °F 76% 29.66 in 10.0 mi South 18.4 mph - N/A   Mostly Cloudy
11:53 PM 66.9 °F 59.0 °F 76% 29.64 in 10.0 mi South 21.9 mph 31.1 mph N/A   Mostly Cloudy